| time (UTC) | temp F | wind direction | speed MPH | gust MPH | rain 1hr in | rain 24hr in | rain mn in | humidity % | barometer mb |
| 20260505213907 | 68 | 203 | 1.0 | 1.0 | 0.00 | 0.01 | 0.01 | 47 | 1013.9 |
| 20260505213404 | 69 | 148 | 0.0 | 1.0 | 0.00 | 0.01 | 0.01 | 43 | 1013.7 |
| 20260505212900 | 68 | 154 | 0.0 | 0.0 | 0.00 | 0.01 | 0.01 | 47 | 1013.7 |
| 20260505212357 | 67 | 154 | 0.0 | 1.0 | 0.00 | 0.01 | 0.01 | 45 | 1013.7 |
| 20260505211854 | 66 | 154 | 0.0 | 0.0 | 0.00 | 0.01 | 0.01 | 48 | 1014.1 |
| 20260505211351 | 67 | 160 | 0.0 | 0.0 | 0.00 | 0.01 | 0.01 | 47 | 1014.2 |
| 20260505210847 | 68 | 133 | 0.0 | 0.0 | 0.00 | 0.01 | 0.01 | 47 | 1014.1 |
| 20260505210344 | 68 | 141 | 0.0 | 0.0 | 0.00 | 0.01 | 0.01 | 50 | 1014.2 |
| 20260505205841 | 66 | 149 | 0.0 | 0.0 | 0.00 | 0.01 | 0.01 | 48 | 1014.1 |
| 20260505205340 | 66 | 154 | 0.0 | 0.0 | 0.00 | 0.01 | 0.01 | 49 | 1014.1 |
| 20260505204836 | 68 | 157 | 0.0 | 0.0 | 0.00 | 0.01 | 0.01 | 46 | 1014.2 |
| 20260505204334 | 68 | 28 | 0.0 | 0.0 | 0.00 | 0.01 | 0.01 | 52 | 1014.4 |
| 20260505203831 | 68 | 144 | 0.0 | 0.0 | 0.00 | 0.01 | 0.01 | 48 | 1014.2 |
| 20260505203327 | 66 | 152 | 0.0 | 0.0 | 0.00 | 0.01 | 0.01 | 52 | 1014.4 |
| 20260505202824 | 65 | 149 | 0.0 | 1.0 | 0.00 | 0.01 | 0.01 | 53 | 1014.1 |
| 20260505202320 | 66 | 154 | 0.0 | 0.0 | 0.00 | 0.01 | 0.01 | 50 | 1014.6 |
| 20260505201817 | 68 | 162 | 0.0 | 0.0 | 0.00 | 0.01 | 0.01 | 48 | 1014.5 |
| 20260505201314 | 68 | 177 | 0.0 | 0.0 | 0.00 | 0.01 | 0.01 | 53 | 1014.4 |
| 20260505200813 | 67 | 155 | 0.0 | 0.0 | 0.00 | 0.01 | 0.01 | 52 | 1014.4 |
| 20260505200309 | 67 | 157 | 0.0 | 0.0 | 0.00 | 0.01 | 0.01 | 50 | 1014.5 |
| 20260505195804 | 65 | 154 | 0.0 | 0.0 | 0.00 | 0.01 | 0.01 | 57 | 1014.5 |
| 20260505195305 | 68 | 205 | 0.0 | 0.0 | 0.00 | 0.01 | 0.01 | 50 | 1014.7 |
| 20260505194759 | 69 | 159 | 0.0 | 0.0 | 0.00 | 0.01 | 0.01 | 56 | 1014.5 |
| 20260505194256 | 68 | 157 | 0.0 | 0.0 | 0.00 | 0.01 | 0.01 | 56 | 1014.7 |
| 20260505193756 | 67 | 153 | 0.0 | 0.0 | 0.00 | 0.01 | 0.01 | 56 | 1014.7 |
| 20260505193255 | 66 | 159 | 0.0 | 0.0 | 0.00 | 0.01 | 0.01 | 53 | 1014.7 |
| 20260505192753 | 65 | 162 | 0.0 | 0.0 | 0.00 | 0.01 | 0.01 | 56 | 1014.6 |
| 20260505192250 | 65 | 156 | 0.0 | 0.0 | 0.00 | 0.01 | 0.01 | 58 | 1014.6 |
| 20260505191748 | 64 | 168 | 0.0 | 0.0 | 0.00 | 0.01 | 0.01 | 60 | 1014.7 |
| 20260505191246 | 65 | 190 | 0.0 | 0.0 | 0.00 | 0.01 | 0.01 | 61 | 1014.6 |
| 20260505190742 | 64 | 145 | 0.0 | 0.0 | 0.00 | 0.01 | 0.01 | 60 | 1014.7 |
| 20260505190237 | 65 | 142 | 0.0 | 0.0 | 0.00 | 0.01 | 0.01 | 54 | 1014.6 |
| 20260505185734 | 64 | 153 | 0.0 | 0.0 | 0.00 | 0.01 | 0.01 | 63 | 1014.8 |
| 20260505185230 | 64 | 155 | 0.0 | 0.0 | 0.00 | 0.01 | 0.01 | 57 | 1014.6 |
| 20260505184726 | 63 | 153 | 0.0 | 0.0 | 0.00 | 0.01 | 0.01 | 62 | 1014.7 |
| 20260505184224 | 62 | 149 | 0.0 | 0.0 | 0.00 | 0.01 | 0.01 | 64 | 1014.9 |
| 20260505183720 | 60 | 155 | 0.0 | 0.0 | 0.00 | 0.01 | 0.01 | 68 | 1014.9 |
| 20260505183218 | 60 | 153 | 0.0 | 0.0 | 0.00 | 0.01 | 0.01 | 67 | 1014.8 |
| 20260505182714 | 59 | 175 | 0.0 | 0.0 | 0.00 | 0.01 | 0.01 | 65 | 1014.7 |
| 20260505182211 | 59 | 158 | 0.0 | 0.0 | 0.00 | 0.01 | 0.01 | 69 | 1015.0 |
| 20260505181708 | 60 | 150 | 0.0 | 0.0 | 0.00 | 0.01 | 0.01 | 71 | 1014.8 |
| 20260505181206 | 60 | 152 | 0.0 | 0.0 | 0.00 | 0.01 | 0.01 | 64 | 1014.8 |
| 20260505180701 | 59 | 151 | 0.0 | 0.0 | 0.00 | 0.01 | 0.01 | 68 | 1014.8 |
| 20260505180159 | 60 | 75 | 0.0 | 0.0 | 0.00 | 0.01 | 0.01 | 69 | 1014.8 |
| 20260505175654 | 59 | 151 | 0.0 | 0.0 | 0.00 | 0.01 | 0.01 | 72 | 1014.7 |
| 20260505175151 | 57 | 150 | 0.0 | 0.0 | 0.00 | 0.01 | 0.01 | 74 | 1014.6 |
| 20260505174648 | 57 | 147 | 0.0 | 0.0 | 0.00 | 0.01 | 0.01 | 75 | 1014.7 |
| 20260505174144 | 56 | 153 | 0.0 | 0.0 | 0.00 | 0.01 | 0.01 | 75 | 1014.6 |
| 20260505173641 | 55 | 150 | 0.0 | 0.0 | 0.00 | 0.01 | 0.01 | 79 | 1014.7 |
| 20260505173137 | 54 | 148 | 0.0 | 0.0 | 0.00 | 0.01 | 0.01 | 80 | 1014.6 |
| 20260505172635 | 53 | 186 | 0.0 | 0.0 | 0.00 | 0.01 | 0.01 | 77 | 1014.7 |
| 20260505172132 | 53 | 155 | 0.0 | 0.0 | 0.00 | 0.01 | 0.01 | 78 | 1014.7 |
| 20260505171626 | 53 | 165 | 0.0 | 0.0 | 0.00 | 0.01 | 0.01 | 80 | 1014.6 |
| 20260505171124 | 53 | 170 | 0.0 | 0.0 | 0.00 | 0.01 | 0.01 | 80 | 1014.6 |
| 20260505170621 | 52 | 151 | 0.0 | 0.0 | 0.00 | 0.01 | 0.01 | 81 | 1014.4 |
| 20260505170117 | 51 | 154 | 0.0 | 0.0 | 0.00 | 0.01 | 0.01 | 84 | 1014.5 |
| 20260505165612 | 51 | 152 | 0.0 | 0.0 | 0.00 | 0.01 | 0.01 | 84 | 1014.5 |
| 20260505165108 | 50 | 155 | 0.0 | 0.0 | 0.00 | 0.01 | 0.01 | 88 | 1014.5 |
| 20260505164604 | 50 | 158 | 0.0 | 0.0 | 0.00 | 0.01 | 0.01 | 92 | 1014.4 |
| 20260505164102 | 49 | 153 | 0.0 | 0.0 | 0.00 | 0.01 | 0.01 | 93 | 1014.4 |
| 20260505163600 | 49 | 156 | 0.0 | 0.0 | 0.00 | 0.01 | 0.01 | 94 | 1014.8 |
| 20260505163057 | 48 | 160 | 0.0 | 0.0 | 0.00 | 0.01 | 0.01 | 95 | 1014.2 |
| 20260505162555 | 48 | 161 | 0.0 | 0.0 | 0.00 | 0.01 | 0.01 | 95 | 1014.1 |
| 20260505162052 | 48 | 157 | 0.0 | 0.0 | 0.00 | 0.01 | 0.01 | 96 | 1014.1 |
| 20260505161549 | 48 | 155 | 0.0 | 0.0 | 0.00 | 0.01 | 0.01 | 98 | 1014.0 |
| 20260505161047 | 47 | 156 | 0.0 | 0.0 | 0.00 | 0.01 | 0.01 | 98 | 1013.8 |
| 20260505160544 | 47 | 155 | 0.0 | 0.0 | 0.00 | 0.01 | 0.01 | 98 | 1013.9 |
| 20260505153021 | 48 | 157 | 0.0 | 0.0 | 0.00 | 0.01 | 0.01 | 99 | 1013.8 |
| 20260505152518 | 48 | 156 | 0.0 | 0.0 | 0.00 | 0.01 | 0.01 | 99 | 1013.7 |
| 20260505152013 | 48 | 147 | 0.0 | 0.0 | 0.00 | 0.01 | 0.01 | 99 | 1013.8 |
| 20260505151509 | 48 | 146 | 0.0 | 0.0 | 0.00 | 0.01 | 0.01 | 99 | 1013.7 |
| 20260505151006 | 48 | 150 | 0.0 | 0.0 | 0.00 | 0.01 | 0.01 | 99 | 1013.6 |
| 20260505150503 | 47 | 150 | 0.0 | 0.0 | 0.00 | 0.01 | 0.01 | 99 | 1013.6 |
| 20260505140433 | 46 | 145 | 0.0 | 0.0 | 0.00 | 0.01 | 0.01 | 99 | 1013.0 |
| 20260505124846 | 45 | 146 | 0.0 | 0.0 | 0.00 | 0.01 | 0.01 | 99 | 1012.1 |
| 20260505124343 | 45 | 146 | 0.0 | 0.0 | 0.00 | 0.01 | 0.01 | 99 | 1012.2 |
| 20260505123839 | 45 | 146 | 0.0 | 0.0 | 0.00 | 0.01 | 0.01 | 99 | 1012.3 |
| 20260505123336 | 45 | 146 | 0.0 | 0.0 | 0.00 | 0.01 | 0.01 | 99 | 1012.2 |
| 20260505122832 | 45 | 146 | 0.0 | 0.0 | 0.00 | 0.01 | 0.01 | 99 | 1012.1 |
| 20260505122329 | 45 | 146 | 0.0 | 0.0 | 0.00 | 0.01 | 0.01 | 99 | 1012.0 |
| 20260505121826 | 45 | 146 | 0.0 | 0.0 | 0.00 | 0.01 | 0.01 | 99 | 1012.3 |
| 20260505121323 | 45 | 146 | 0.0 | 0.0 | 0.00 | 0.01 | 0.01 | 99 | 1012.1 |
| 20260505120819 | 45 | 147 | 0.0 | 0.0 | 0.00 | 0.01 | 0.01 | 99 | 1012.3 |
| 20260505120315 | 45 | 147 | 0.0 | 0.0 | 0.00 | 0.01 | 0.01 | 99 | 1012.2 |
| 20260505115814 | 45 | 147 | 0.0 | 0.0 | 0.00 | 0.01 | 0.01 | 99 | 1012.3 |
| 20260505115312 | 45 | 147 | 0.0 | 0.0 | 0.00 | 0.01 | 0.01 | 99 | 1012.2 |
| 20260505114809 | 45 | 147 | 0.0 | 0.0 | 0.00 | 0.01 | 0.01 | 99 | 1012.1 |
| 20260505114305 | 45 | 147 | 0.0 | 0.0 | 0.00 | 0.01 | 0.01 | 99 | 1012.1 |
| 20260505113802 | 45 | 147 | 0.0 | 0.0 | 0.00 | 0.01 | 0.01 | 99 | 1012.1 |
| 20260505113258 | 45 | 147 | 0.0 | 0.0 | 0.00 | 0.01 | 0.01 | 99 | 1012.1 |
| 20260505112754 | 45 | 147 | 0.0 | 0.0 | 0.00 | 0.01 | 0.01 | 99 | 1012.2 |
| 20260505112252 | 45 | 147 | 0.0 | 0.0 | 0.00 | 0.01 | 0.01 | 99 | 1012.2 |
| 20260505111752 | 45 | 147 | 0.0 | 0.0 | 0.00 | 0.01 | 0.01 | 99 | 1012.1 |
| 20260505111248 | 45 | 147 | 0.0 | 0.0 | 0.00 | 0.01 | 0.01 | 99 | 1012.1 |
| 20260505110744 | 45 | 147 | 0.0 | 0.0 | 0.00 | 0.01 | 0.01 | 99 | 1012.3 |
| 20260505110243 | 45 | 147 | 0.0 | 0.0 | 0.00 | 0.01 | 0.01 | 99 | 1012.3 |
| 20260505102218 | 44 | 147 | 0.0 | 0.0 | 0.00 | 0.01 | 0.01 | 99 | 1012.4 |
| 20260505101716 | 44 | 147 | 0.0 | 0.0 | 0.00 | 0.01 | 0.01 | 99 | 1012.5 |
| 20260505101212 | 44 | 147 | 0.0 | 0.0 | 0.00 | 0.01 | 0.01 | 99 | 1012.3 |
| 20260505100708 | 44 | 147 | 0.0 | 0.0 | 0.00 | 0.01 | 0.01 | 99 | 1012.3 |
| 20260505100206 | 45 | 147 | 0.0 | 0.0 | 0.00 | 0.01 | 0.01 | 99 | 1012.5 |
| 20260505095701 | 45 | 146 | 0.0 | 0.0 | 0.00 | 0.01 | 0.01 | 99 | 1012.5 |
| 20260505095159 | 45 | 143 | 0.0 | 0.0 | 0.00 | 0.01 | 0.01 | 99 | 1012.5 |
| 20260505094654 | 45 | 153 | 0.0 | 0.0 | 0.00 | 0.01 | 0.01 | 99 | 1012.5 |
| 20260505094151 | 45 | 153 | 0.0 | 0.0 | 0.00 | 0.01 | 0.01 | 99 | 1012.6 |
| 20260505093648 | 45 | 153 | 0.0 | 0.0 | 0.00 | 0.01 | 0.01 | 99 | 1012.8 |
| 20260505093145 | 45 | 153 | 0.0 | 0.0 | 0.00 | 0.01 | 0.01 | 99 | 1012.5 |
| 20260505092642 | 45 | 144 | 0.0 | 0.0 | 0.00 | 0.01 | 0.01 | 99 | 1012.6 |
| 20260505092141 | 45 | 149 | 0.0 | 0.0 | 0.00 | 0.01 | 0.01 | 99 | 1012.5 |
| 20260505091637 | 45 | 145 | 0.0 | 0.0 | 0.00 | 0.01 | 0.01 | 99 | 1012.6 |
| 20260505091135 | 45 | 143 | 0.0 | 0.0 | 0.00 | 0.01 | 0.01 | 99 | 1012.5 |
| 20260505090632 | 45 | 146 | 0.0 | 0.0 | 0.00 | 0.01 | 0.01 | 99 | 1012.8 |
| 20260505090131 | 45 | 147 | 0.0 | 0.0 | 0.00 | 0.01 | 0.01 | 99 | 1012.6 |
| 20260505085628 | 45 | 148 | 0.0 | 0.0 | 0.00 | 0.01 | 0.01 | 99 | 1012.6 |
| 20260505085126 | 45 | 148 | 0.0 | 0.0 | 0.00 | 0.01 | 0.01 | 99 | 1013.0 |
| 20260505084623 | 45 | 152 | 0.0 | 0.0 | 0.00 | 0.01 | 0.01 | 99 | 1012.9 |
| 20260505084122 | 45 | 153 | 0.0 | 0.0 | 0.00 | 0.01 | 0.01 | 99 | 1013.1 |
| 20260505083619 | 45 | 153 | 0.0 | 0.0 | 0.00 | 0.01 | 0.01 | 99 | 1013.0 |
| 20260505083115 | 45 | 152 | 0.0 | 0.0 | 0.07 | 0.01 | 0.01 | 99 | 1013.1 |
| 20260505082611 | 45 | 152 | 0.0 | 0.0 | 0.07 | 0.01 | 0.01 | 99 | 1013.1 |
| 20260505082108 | 45 | 152 | 0.0 | 0.0 | 0.00 | 0.00 | 0.00 | 99 | 1012.9 |
| 20260505081604 | 45 | 152 | 0.0 | 0.0 | 0.00 | 0.00 | 0.00 | 99 | 1013.1 |
| 20260505081102 | 46 | 153 | 0.0 | 0.0 | 0.00 | 0.00 | 0.00 | 99 | 1013.0 |
| 20260505080558 | 45 | 132 | 0.0 | 0.0 | 0.00 | 0.00 | 0.00 | 99 | 1013.1 |
| 20260505080055 | 45 | 152 | 0.0 | 0.0 | 0.00 | 0.00 | 0.00 | 99 | 1012.9 |
| 20260505075550 | 45 | 145 | 0.0 | 0.0 | 0.00 | 0.00 | 0.00 | 99 | 1013.0 |
| 20260505075047 | 45 | 150 | 0.0 | 0.0 | 0.00 | 0.00 | 0.00 | 99 | 1013.0 |
| 20260505074544 | 45 | 151 | 0.0 | 0.0 | 0.00 | 0.00 | 0.00 | 99 | 1012.8 |
| 20260505074042 | 45 | 151 | 0.0 | 0.0 | 0.00 | 0.00 | 0.00 | 99 | 1012.6 |
| 20260505073539 | 45 | 154 | 0.0 | 0.0 | 0.00 | 0.00 | 0.00 | 99 | 1012.9 |
| 20260505073038 | 45 | 152 | 0.0 | 0.0 | 0.00 | 0.00 | 0.00 | 99 | 1013.1 |
| 20260505072532 | 45 | 167 | 0.0 | 0.0 | 0.00 | 0.00 | 0.00 | 99 | 1013.1 |
| 20260505072029 | 45 | 146 | 0.0 | 0.0 | 0.00 | 0.00 | 0.00 | 98 | 1013.3 |
| 20260505071524 | 45 | 146 | 0.0 | 0.0 | 0.00 | 0.00 | 0.00 | 98 | 1013.2 |
| 20260505071023 | 45 | 153 | 0.0 | 0.0 | 0.00 | 0.00 | 0.00 | 98 | 1013.4 |
| 20260505070520 | 45 | 154 | 0.0 | 0.0 | 0.05 | 0.00 | 0.00 | 99 | 1013.2 |
| 20260505070016 | 45 | 147 | 0.0 | 0.0 | 0.05 | 0.53 | 0.53 | 98 | 1013.0 |
| 20260505065512 | 45 | 151 | 0.0 | 0.0 | 0.00 | 0.52 | 0.52 | 98 | 1013.0 |
| 20260505065009 | 45 | 149 | 0.0 | 0.0 | 0.07 | 0.52 | 0.52 | 98 | 1012.9 |
| 20260505064506 | 45 | 155 | 0.0 | 0.0 | 0.07 | 0.52 | 0.52 | 98 | 1012.6 |
| 20260505064004 | 45 | 153 | 0.0 | 0.0 | 0.05 | 0.51 | 0.51 | 98 | 1012.8 |
| 20260505063501 | 45 | 156 | 0.0 | 0.0 | 0.05 | 0.51 | 0.51 | 98 | 1012.5 |
| 20260505062956 | 45 | 149 | 0.0 | 0.0 | 0.00 | 0.50 | 0.50 | 98 | 1012.4 |
| 20260505062453 | 45 | 147 | 0.0 | 0.0 | 0.00 | 0.50 | 0.50 | 98 | 1012.4 |
| 20260505061951 | 45 | 147 | 0.0 | 0.0 | 0.00 | 0.50 | 0.50 | 98 | 1012.8 |
| 20260505061449 | 45 | 147 | 0.0 | 0.0 | 0.00 | 0.50 | 0.50 | 98 | 1012.5 |
| 20260505060946 | 45 | 147 | 0.0 | 0.0 | 0.00 | 0.50 | 0.50 | 98 | 1012.2 |
| 20260505060443 | 44 | 147 | 0.0 | 0.0 | 0.00 | 0.50 | 0.50 | 98 | 1012.5 |
| 20260505055939 | 44 | 153 | 0.0 | 0.0 | 0.00 | 0.50 | 0.50 | 98 | 1012.3 |
| 20260505055435 | 44 | 150 | 0.0 | 0.0 | 0.00 | 0.50 | 0.50 | 98 | 1012.4 |
| 20260505054932 | 44 | 150 | 0.0 | 0.0 | 0.00 | 0.50 | 0.50 | 98 | 1012.3 |
| 20260505054430 | 45 | 145 | 0.0 | 0.0 | 0.00 | 0.50 | 0.50 | 98 | 1012.4 |
| 20260505053927 | 45 | 148 | 0.0 | 0.0 | 0.00 | 0.50 | 0.50 | 98 | 1012.6 |
| 20260505053424 | 45 | 145 | 0.0 | 0.0 | 0.07 | 0.50 | 0.50 | 98 | 1012.5 |
| 20260505052921 | 45 | 143 | 0.0 | 0.0 | 0.07 | 0.50 | 0.50 | 98 | 1012.5 |
| 20260505052418 | 45 | 143 | 0.0 | 0.0 | 0.00 | 0.49 | 0.49 | 98 | 1012.9 |
| 20260505051915 | 45 | 143 | 0.0 | 0.0 | 0.00 | 0.49 | 0.49 | 98 | 1013.0 |
| 20260505051412 | 45 | 148 | 0.0 | 0.0 | 0.00 | 0.49 | 0.49 | 98 | 1012.8 |
| 20260505050910 | 45 | 149 | 0.0 | 0.0 | 0.00 | 0.49 | 0.49 | 98 | 1013.1 |
| 20260505050408 | 45 | 152 | 0.0 | 0.0 | 0.00 | 0.49 | 0.49 | 98 | 1012.8 |
| 20260505041336 | 45 | 132 | 0.0 | 0.0 | 0.05 | 0.49 | 0.49 | 97 | 1012.4 |
| 20260505040833 | 45 | 149 | 0.0 | 0.0 | 0.00 | 0.48 | 0.48 | 97 | 1012.9 |
| 20260505040331 | 45 | 147 | 0.0 | 0.0 | 0.00 | 0.48 | 0.48 | 97 | 1012.8 |
| 20260505035827 | 45 | 149 | 0.0 | 0.0 | 0.00 | 0.48 | 0.48 | 97 | 1012.4 |
| 20260505035323 | 45 | 146 | 0.0 | 0.0 | 0.00 | 0.48 | 0.48 | 97 | 1012.3 |
| 20260505034820 | 45 | 149 | 0.0 | 0.0 | 0.00 | 0.48 | 0.48 | 97 | 1012.4 |
| 20260505034317 | 45 | 150 | 0.0 | 0.0 | 0.00 | 0.48 | 0.48 | 97 | 1012.3 |
| 20260505033814 | 45 | 149 | 0.0 | 0.0 | 0.00 | 0.48 | 0.48 | 97 | 1012.3 |
| 20260505033311 | 45 | 155 | 0.0 | 0.0 | 0.07 | 0.48 | 0.48 | 97 | 1012.2 |
| 20260505032809 | 45 | 151 | 0.0 | 0.0 | 0.07 | 0.48 | 0.48 | 96 | 1011.2 |
| 20260505032305 | 45 | 169 | 0.0 | 0.0 | 0.14 | 0.48 | 0.48 | 97 | 1012.0 |
| 20260505031802 | 45 | 153 | 0.0 | 0.0 | 0.19 | 0.47 | 0.47 | 96 | 1012.4 |
| 20260505031258 | 45 | 148 | 0.0 | 0.0 | 0.24 | 0.46 | 0.46 | 96 | 1012.8 |
| 20260505030756 | 45 | 150 | 0.0 | 0.0 | 0.24 | 0.44 | 0.44 | 96 | 1012.5 |
| 20260505030252 | 46 | 142 | 0.0 | 0.0 | 0.12 | 0.42 | 0.42 | 96 | 1012.5 |
| 20260505025747 | 46 | 136 | 0.0 | 0.0 | 0.00 | 0.40 | 0.40 | 96 | 1012.6 |
| 20260505025246 | 46 | 147 | 0.0 | 0.0 | 0.00 | 0.40 | 0.40 | 96 | 1012.5 |
| 20260505024744 | 46 | 21 | 0.0 | 1.0 | 0.00 | 0.40 | 0.40 | 96 | 1012.6 |
| 20260505024241 | 47 | 148 | 0.0 | 0.0 | 0.00 | 0.40 | 0.40 | 96 | 1012.4 |
| 20260505023738 | 47 | 0 | 0.0 | 1.0 | 0.00 | 0.40 | 0.40 | 96 | 1012.5 |
| 20260505023235 | 47 | 157 | 0.0 | 0.0 | 0.00 | 0.40 | 0.40 | 96 | 1012.3 |
| 20260505022732 | 47 | 144 | 0.0 | 0.0 | 0.00 | 0.40 | 0.40 | 96 | 1012.0 |
| 20260505022229 | 47 | 146 | 0.0 | 0.0 | 0.00 | 0.40 | 0.40 | 96 | 1011.8 |
| 20260505021726 | 47 | 151 | 0.0 | 0.0 | 0.00 | 0.40 | 0.40 | 96 | 1011.8 |
| 20260505021223 | 47 | 151 | 0.0 | 0.0 | 0.00 | 0.40 | 0.40 | 96 | 1012.0 |
| 20260505020718 | 47 | 121 | 0.0 | 0.0 | 0.00 | 0.40 | 0.40 | 95 | 1011.6 |
| 20260505020214 | 47 | 146 | 0.0 | 0.0 | 0.00 | 0.40 | 0.40 | 95 | 1011.6 |
| 20260505015712 | 47 | 144 | 0.0 | 0.0 | 0.00 | 0.40 | 0.40 | 95 | 1011.6 |
| 20260505015209 | 47 | 145 | 0.0 | 0.0 | 0.05 | 0.40 | 0.40 | 95 | 1011.7 |
| 20260505014705 | 47 | 151 | 0.0 | 0.0 | 0.05 | 0.40 | 0.40 | 94 | 1011.0 |
| 20260505014203 | 47 | 215 | 1.0 | 2.0 | 0.07 | 0.39 | 0.39 | 94 | 1010.5 |
| 20260505013659 | 47 | 181 | 0.0 | 0.0 | 0.38 | 0.39 | 0.39 | 94 | 1012.1 |
| 20260505013157 | 47 | 160 | 0.0 | 0.0 | 0.42 | 0.38 | 0.38 | 94 | 1012.4 |
| 20260505012655 | 48 | 167 | 0.0 | 0.0 | 0.24 | 0.33 | 0.33 | 94 | 1013.1 |
| 20260505012152 | 48 | 155 | 0.0 | 0.0 | 0.24 | 0.31 | 0.31 | 93 | 1013.4 |
| 20260505011652 | 48 | 157 | 0.0 | 0.0 | 0.24 | 0.29 | 0.29 | 93 | 1012.9 |
| 20260505011150 | 48 | 186 | 0.0 | 0.0 | 0.24 | 0.27 | 0.27 | 92 | 1012.6 |
| 20260505010645 | 48 | 147 | 0.0 | 0.0 | 0.24 | 0.25 | 0.25 | 92 | 1012.5 |
| 20260505010142 | 48 | 178 | 0.0 | 0.0 | 0.35 | 0.23 | 0.23 | 92 | 1012.4 |
| 20260505005638 | 49 | 169 | 0.0 | 0.0 | 0.42 | 0.21 | 0.21 | 90 | 1012.3 |
| 20260505005135 | 49 | 148 | 0.0 | 0.0 | 0.61 | 0.17 | 0.17 | 89 | 1012.5 |
| 20260505004632 | 49 | 163 | 0.0 | 0.0 | 0.59 | 0.14 | 0.14 | 88 | 1012.3 |
| 20260505004129 | 50 | 146 | 0.0 | 0.0 | 0.31 | 0.08 | 0.08 | 87 | 1012.6 |
| 20260505003626 | 51 | 153 | 0.0 | 0.0 | 0.12 | 0.04 | 0.04 | 84 | 1012.6 |
| 20260505003124 | 51 | 127 | 0.0 | 0.0 | 0.05 | 0.03 | 0.03 | 79 | 1012.0 |
| 20260505002619 | 51 | 162 | 0.0 | 0.0 | 0.00 | 0.02 | 0.02 | 78 | 1011.4 |
| 20260505002118 | 52 | 176 | 0.0 | 1.0 | 0.00 | 0.02 | 0.02 | 78 | 1011.5 |
| 20260505001615 | 53 | 217 | 1.0 | 2.0 | 0.00 | 0.02 | 0.02 | 75 | 1011.2 |
| 20260505001112 | 53 | 214 | 1.0 | 1.0 | 0.00 | 0.02 | 0.02 | 72 | 1011.3 |
| 20260505000609 | 53 | 152 | 0.0 | 0.0 | 0.00 | 0.02 | 0.02 | 70 | 1011.2 |
| 20260505000107 | 53 | 156 | 0.0 | 1.0 | 0.00 | 0.02 | 0.02 | 70 | 1010.9 |
| 20260504235603 | 53 | 179 | 1.0 | 1.0 | 0.00 | 0.02 | 0.02 | 70 | 1010.9 |
| 20260504235100 | 54 | 165 | 0.0 | 0.0 | 0.00 | 0.02 | 0.02 | 69 | 1010.7 |
| 20260504234557 | 54 | 219 | 1.0 | 2.0 | 0.00 | 0.02 | 0.02 | 69 | 1010.7 |
| 20260504234054 | 54 | 173 | 0.0 | 0.0 | 0.00 | 0.02 | 0.02 | 71 | 1010.9 |
| 20260504233549 | 54 | 154 | 0.0 | 0.0 | 0.00 | 0.02 | 0.02 | 70 | 1010.8 |
| 20260504233046 | 54 | 73 | 1.0 | 1.0 | 0.00 | 0.02 | 0.02 | 68 | 1010.8 |
| 20260504232543 | 55 | 279 | 1.0 | 3.0 | 0.00 | 0.02 | 0.02 | 68 | 1011.0 |
| 20260504232041 | 56 | 209 | 1.0 | 2.0 | 0.00 | 0.02 | 0.02 | 65 | 1010.7 |
| 20260504231537 | 57 | 167 | 0.0 | 0.0 | 0.00 | 0.02 | 0.02 | 61 | 1011.2 |
| 20260504231033 | 57 | 214 | 3.0 | 5.0 | 0.00 | 0.02 | 0.02 | 58 | 1010.8 |
| 20260504230530 | 57 | 171 | 1.0 | 2.0 | 0.00 | 0.02 | 0.02 | 58 | 1010.8 |
| 20260504230029 | 57 | 147 | 1.0 | 2.0 | 0.00 | 0.02 | 0.02 | 58 | 1010.8 |
| 20260504225526 | 58 | 195 | 0.0 | 1.0 | 0.00 | 0.02 | 0.02 | 56 | 1011.0 |
| 20260504225023 | 58 | 143 | 0.0 | 1.0 | 0.00 | 0.02 | 0.02 | 55 | 1010.9 |
| 20260504224519 | 59 | 196 | 0.0 | 1.0 | 0.00 | 0.02 | 0.02 | 54 | 1011.2 |
| 20260504224017 | 59 | 241 | 0.0 | 1.0 | 0.00 | 0.02 | 0.02 | 55 | 1010.9 |
| 20260504223513 | 59 | 144 | 0.0 | 0.0 | 0.00 | 0.02 | 0.02 | 55 | 1011.2 |
| 20260504223009 | 59 | 235 | 3.0 | 3.0 | 0.00 | 0.02 | 0.02 | 53 | 1011.3 |
| 20260504222506 | 59 | 160 | 0.0 | 1.0 | 0.00 | 0.02 | 0.02 | 55 | 1011.0 |
| 20260504222003 | 60 | 164 | 1.0 | 2.0 | 0.00 | 0.02 | 0.02 | 53 | 1011.2 |
| 20260504221500 | 60 | 201 | 1.0 | 3.0 | 0.00 | 0.02 | 0.02 | 54 | 1011.0 |
| 20260504220957 | 60 | 197 | 2.0 | 3.0 | 0.00 | 0.02 | 0.02 | 53 | 1011.2 |
| 20260504220454 | 58 | 139 | 0.0 | 0.0 | 0.00 | 0.02 | 0.02 | 57 | 1011.2 |
| 20260504215951 | 58 | 236 | 3.0 | 5.0 | 0.00 | 0.02 | 0.02 | 56 | 1011.5 |
| 20260504215447 | 58 | 202 | 2.0 | 3.0 | 0.00 | 0.02 | 0.02 | 57 | 1011.3 |
| 20260504214944 | 58 | 243 | 2.0 | 3.0 | 0.00 | 0.02 | 0.02 | 56 | 1011.5 |
| 20260504214440 | 59 | 246 | 3.0 | 5.0 | 0.00 | 0.02 | 0.02 | 54 | 1011.4 |